Location: Shell Point
(30.0571°N, 84.2896°W)
Time: 14:09:38
(UTC-04:00)

Daily predictions for brighter satellites

Satellite Brightness Start Highest point End
(mag) Time Altitude Azimuth Time Altitude Azimuth Time Altitude Azimuth
METEOR-M 4.2 20:49:39 10° SSE 20:55:00 84° ENE 21:00:22 10° N
Cosmos 494 Rocket 4.1 20:51:16 10° S 20:56:14 54° ESE 21:01:12 10° NNE
FengYun 1-2 T 4.2 20:52:47 10° SSE 20:58:16 76° ENE 21:03:45 10° N
Delta 168 3.4 20:55:43 10° SW 20:58:36 31° SSE 21:02:06 10° ESE
Meteor 2-4 Rocket 4.2 20:55:58 10° SSE 21:01:27 45° E 21:07:02 10° NNE
Cosmos 2333 Rocket 4.3 20:57:04 10° SW 21:02:05 33° WNW 21:07:09 10° N
Cosmos 1844 Rocket 3.9 20:59:48 10° NW 21:05:07 44° WSW 21:10:24 10° S
FENGYUN 3A 4.0 21:00:28 10° SE 21:05:34 47° ENE 21:10:42 10° N
Cosmos 1025 Rocket 3.1 21:01:20 10° S 21:05:42 89° ESE 21:10:06 10° N
Meteor 1-19 Rocket 4.2 21:02:12 10° S 21:07:48 74° E 21:13:23 10° NNE
Cosmos 2297 4.3 21:03:15 10° N 21:08:39 42° ENE 21:14:03 10° SE
BREEZE-M R/B 3.7 21:06:33 10° WNW 21:09:34 45° SW 21:15:00 10° SSE
Resurs 01 Rocket 3.5 21:08:36 10° SSW 21:12:30 30° W 21:16:27 10° NW
H-2A R/B 3.0 21:12:23 10° SSE 21:16:13 54° ENE 21:20:05 10° N
Okean 2 3.6 21:13:14 10° SSE 21:17:17 51° E 21:21:21 10° NNE
Cosmos 1892 Rocket 3.5 21:13:41 10° S 21:18:06 82° E 21:22:34 10° N
GEOS 3 Rocket 4.3 21:14:25 11° ESE 21:19:07 42° NE 21:24:01 10° NNW
Aureole 2 Rocket 2.6 21:18:41 10° S 21:22:46 75° ESE 21:26:31 10° NNE
Meteor 2-17 Rocket 4.4 21:16:40 10° N 21:22:49 77° E 21:28:58 10° S
SeaSat 1 4.5 21:24:58 10° E 21:27:24 14° NE 21:29:51 10° NNE
Cosmos 1331 Rocket 4.1 21:23:51 10° N 21:28:58 59° ENE 21:33:19 14° SSE
USA 186 1.9 21:32:02 10° S 21:34:57 61° W 21:37:43 10° NNW
CZ-2C R/B 0.7 21:36:18 34° SE 21:36:55 47° ENE 21:39:09 10° N
ATLAS 5 CENTAUR R/B 2.4 21:38:42 10° SW 21:40:59 20° SSE 21:41:36 19° SSE
ATLAS 3B R/B 3.5 21:39:57 10° S 21:46:39 34° ESE 21:53:21 10° NE
Cosmos 1726 Rocket 3.9 21:42:26 10° NNW 21:46:50 66° W 21:51:10 10° S
Cosmos 2278 Rocket 3.5 21:42:15 10° NW 21:47:27 38° WSW 21:52:39 10° S
SJ-11-01 4.3 21:44:23 19° SSE 21:47:37 63° ENE 21:52:13 10° N
Cosmos 1461 4.2 21:44:47 10° N 21:48:20 26° ENE 21:49:44 21° E
Tsikada Rocket 4.2 21:42:43 10° SSE 21:48:54 54° E 21:55:06 10° NNE
BREEZE-M DEB (TANK) 4.5 21:47:18 10° NW 21:52:14 74° SW 22:06:15 19° SE
Fermi 4.1 21:49:14 10° WSW 21:53:08 44° S 21:54:23 33° SE
deb Centaur AC-2 4.4 21:51:00 10° W 21:55:58 85° S 22:00:39 17° E
Cosmos 2369 Rocket 4.1 21:57:22 10° NNE 22:00:01 13° ENE 22:01:39 12° ENE
ERS-1 Rocket 3.0 21:57:01 18° S 22:00:47 83° WSW 22:05:49 10° NNW
Cosmos 1602 Rocket 3.5 21:56:45 13° S 22:00:48 86° E 22:05:17 10° N
SL-16 R/B 4.5 21:57:23 10° WSW 22:02:01 26° WNW 22:06:42 10° N
Cosmos 2058 Rocket 3.6 21:58:58 10° NNW 22:03:14 55° W 22:06:45 15° SSW
Cosmos 1666 2.6 22:00:24 10° N 22:04:18 90° E 22:05:58 33° S
APEX 3.9 21:59:59 10° NNW 22:04:30 73° ENE 22:07:16 30° SSE
Atlas Centaur 2 2.9 21:57:26 10° WSW 22:04:47 83° S 22:12:42 12° E
Abrixas rocket 3.1 22:02:23 10° NNW 22:05:38 39° NE 22:06:15 35° ENE
Cosmos 2285 Rocket 4.1 21:59:22 10° NNW 22:05:42 78° WSW 22:10:15 20° S
Envisat 3.1 22:05:31 32° SE 22:07:39 56° ENE 22:12:36 10° N
Meteor 1-15 Rocket 4.2 22:03:44 10° N 22:09:21 83° W 22:13:12 21° S
ISS -1.2 22:10:36 10° WSW 22:13:30 29° NW 22:16:25 10° NNE
Cosmos 1464 Rocket 4.3 22:08:03 10° NNW 22:14:07 67° W 22:19:22 14° S
CZ-3C R/B 3.2 22:09:26 10° WSW 22:16:18 22° SSW 22:16:41 22° S
Cosmos 1812 Rocket 3.7 22:13:19 10° N 22:17:37 53° E 22:18:12 49° ESE
Cosmos 1939 Rocket 2.9 22:16:38 41° S 22:18:02 81° WSW 22:22:12 10° NNW
Cosmos 1816 Rocket 4.4 22:18:50 21° S 22:23:17 81° E 22:29:39 10° N
CZ-4 R/B 4.3 22:19:31 10° NNE 22:24:17 42° E 22:24:20 42° ESE
H-2A R/B 2.8 22:22:25 26° SSW 22:24:25 47° W 22:28:34 10° NNW
SPOT 5 2.5 22:24:58 56° SE 22:25:49 75° ENE 22:30:09 10° N
COSMOS 2455 3.3 22:21:49 10° SW 22:27:43 63° WNW 22:33:41 10° NNE
Cosmos 1515 3.6 22:28:51 76° ENE 22:28:51 76° ENE 22:32:35 10° N
CZ-4 SHROUD 3.9 22:31:44 55° NW 22:31:44 55° NW 22:34:21 10° NNW
Cosmos 1066 Rocket 4.3 22:30:02 47° SE 22:31:13 56° E 22:36:51 10° NNE
Cosmos 2034 Rocket 4.4 22:27:09 10° NNW 22:33:26 63° W 22:37:26 23° SSW
Cosmos 1634 Rocket 4.4 22:27:59 10° N 22:33:48 43° E 22:34:40 40° ESE
BREEZE-M DEB (TANK) 4.2 22:34:31 10° NW 22:35:27 23° NW 22:35:27 23° NW
USA 81 4.3 22:32:26 10° N 22:37:32 48° E 22:37:42 48° E
YAOGAN 6 3.6 22:39:45 39° NNE 22:39:45 39° NNE 22:42:24 10° N
Terra 3.8 22:43:54 16° NE 22:43:54 16° NE 22:45:59 10° NNE
Cosmos 489 Rocket 4.5 22:42:05 51° SE 22:43:18 59° ESE 22:49:32 10° NNE
Cosmos 1346 Rocket 4.1 22:48:51 31° NNE 22:48:51 31° NNE 22:51:02 10° NNE
Meteor 2-12 Rocket 4.3 22:41:55 10° N 22:48:00 89° E 22:49:33 53° S
Cosmos 1992 Rocket 4.1 22:45:25 10° N 22:50:30 56° ENE 22:50:30 56° ENE
Cosmos 1953 Rocket 4.1 22:52:36 50° NNE 22:52:36 50° NNE 22:56:00 10° N
Cosmos 1943 3.4 22:50:37 22° SSW 22:54:20 67° WNW 23:00:00 10° NNE
MetOp-A 4.2 22:55:39 59° SSW 22:56:33 71° WSW 23:01:54 10° NNW
H-2A R/B 3.4 22:57:40 25° NE 22:57:40 25° NE 23:00:52 10° NNE
Cosmos 2346 Rocket 4.4 22:56:16 47° SSW 22:58:13 82° W 23:04:24 10° N
Lacrosse 4 Rocket 2.5 23:03:03 37° N 23:03:03 37° N 23:05:40 10° NNE
Meteor 1-21 4.3 23:03:33 61° ENE 23:03:33 61° ENE 23:08:53 10° NNE
SeaSat 1 2.6 23:04:20 63° WSW 23:04:24 63° WSW 23:09:18 10° NNW
Cosmos 1190 Rocket 4.3 23:03:10 47° SW 23:04:31 64° WNW 23:09:48 10° N
Cosmos 1943 Rocket 4.0 23:01:24 10° NNE 23:04:49 18° NE 23:04:49 18° NE
SPOT 1/Viking Rocket 3.4 23:05:20 84° WSW 23:05:21 84° WSW 23:10:31 10° NNW
Geosat 3.9 23:01:40 10° NNE 23:06:36 83° NNW 23:06:36 83° NNW
Cosmos 1900 4.4 23:07:02 77° WNW 23:07:04 77° WNW 23:12:14 10° NNE
Milstar 3 Cent rocket 3.9 23:13:22 10° W 23:16:22 20° SW 23:16:22 20° SW
Cosmos 676 Rocket 4.3 23:21:48 67° NNW 23:21:48 67° NNW 23:26:29 10° NNE
ARGOS 3.6 23:33:16 55° W 23:33:16 55° W 23:38:10 10° NNW
ATLAS 3B R/B 3.9 23:29:57 10° SW 23:37:12 44° NW 23:44:24 10° NNE
Cosmos 2369 Rocket 2.7 23:38:54 10° NNW 23:43:27 55° NW 23:43:27 55° NW
USA 234 3.2 23:48:30 82° NW 23:48:30 82° NW 23:54:47 10° NW
